200P/Larsen (2008)

Japanese version
Home page
Updated on January 1, 2010

---------------------------------------------------------------------

* Profile

Designation 200P/2008 L1
Recovery Date June 9, 2008
Magnitude 20.2 mag
Recoverer J. V. Scotti (Spacewatch, Kitt Peak)

* Pictures

* Orbital Elements

Epoch 2008 Sept. 11.0 TT = JDT 2454720.5
T 2008 Aug. 25.1744 TT                                  MPC
q   3.271999             (2000.0)            P               Q
n   0.0906677      Peri.  133.7286      +0.9757323      -0.1359879
a   4.907208       Node   234.8163      +0.0844817      +0.9568877
e   0.333226       Incl.   12.1214      +0.2020130      +0.2566577
P  10.9
From 266 observations 1997-2008, mean residual 0".5.

* Finding Charts

* Magnitudes Graph

        m1 = -25.8 + 5 log d + 80 log r(t - 100)

---------------------------------------------------------------------

The orbital elements are published on M.P.E.C. 2008-L45.
The charts are made with StellaNavigator Ver.2.0 for Windows (AstroArts / ASCII).
The magnitudes graphs are made with Comet for Windows.

---------------------------------------------------------------------

Copyright(C) Seiichi Yoshida (comet@aerith.net). All rights reserved.